This is the latest recevied weather packets stored in our database for station/object DH5DY-6. If no packets are shown the sender has not sent any weather packets the latest 10 day(s).
| Time | Temp. | Humidity | Pressure | Rain* | Wind** | Luminosity | Snow |
|---|---|---|---|---|---|---|---|
| 1777535882 | 10° C | 34% | 1027.9 hPa | 0 mm | - | 497 W/m² | - |
| 1777535283 | 9.44° C | 34% | 1028 hPa | 0 mm | - | 464 W/m² | - |
| 1777534684 | 9.44° C | 35% | 1028.1 hPa | 0 mm | - | 457 W/m² | - |
| 1777534083 | 9.44° C | 35% | 1028.1 hPa | 0 mm | - | 431 W/m² | - |
| 1777533483 | 8.89° C | 36% | 1028.2 hPa | 0 mm | - | 322 W/m² | - |
| 1777532882 | 8.89° C | 36% | 1028.3 hPa | 0 mm | - | 267 W/m² | - |
| 1777532282 | 8.33° C | 37% | 1028.1 hPa | 0 mm | - | 306 W/m² | - |
| 1777531683 | 8.33° C | 38% | 1028.2 hPa | 0 mm | - | 320 W/m² | - |
| 1777530482 | 7.78° C | 42% | 1028.2 hPa | 0 mm | - | 72 W/m² | - |
| 1777529882 | 7.22° C | 42% | 1028.1 hPa | 0 mm | - | 169 W/m² | - |
| 1777529282 | 7.22° C | 44% | 1028.2 hPa | 0 mm | - | 171 W/m² | - |
| 1777528682 | 6.67° C | 45% | 1028.1 hPa | 0 mm | - | 93 W/m² | - |
| 1777528082 | 6.11° C | 46% | 1028.1 hPa | 0 mm | - | 40 W/m² | - |
| 1777527482 | 5.56° C | 48% | 1027.8 hPa | 0 mm | - | 56 W/m² | - |
| 1777526882 | 5.56° C | 47% | 1027.8 hPa | 0 mm | - | 42 W/m² | - |
| 1777526282 | 5.56° C | 47% | 1027.7 hPa | 0 mm | - | 33 W/m² | - |
| 1777525682 | 5° C | 51% | 1027.8 hPa | 0 mm | - | 58 W/m² | - |
| 1777525082 | 4.44° C | 50% | 1027.7 hPa | 0 mm | - | 32 W/m² | - |
| 1777524482 | 4.44° C | 53% | 1027.7 hPa | 0 mm | - | 16 W/m² | - |
| 1777523282 | 4.44° C | 53% | 1027.3 hPa | 0 mm | - | 9 W/m² | - |
| 1777522681 | 4.44° C | 50% | 1027 hPa | 0 mm | - | 5 W/m² | - |
| 1777522082 | 4.44° C | 52% | 1027 hPa | 0 mm | - | 0 W/m² | - |
| 1777521482 | 4.44° C | 50% | 1026.9 hPa | 0 mm | - | 0 W/m² | - |
| 1777520881 | 4.44° C | 51% | 1026.9 hPa | 0 mm | - | 0 W/m² | - |
| 1777520282 | 4.44° C | 52% | 1027 hPa | 0 mm | - | 0 W/m² | - |
* Rain latest hour (hover to see other rain measurements)
** Current wind speed in m/s (hover to see current wind gust speed)